Location: ????????
(55.6333°N, 37.7000°E)
Time: 12:40:42
(UTC+00:00)

Ariane Rocket - Visible Passes

Search period start: 11 February 2026 00:00
Search period end: 21 February 2026 00:00
Orbit: 755 x 764 km, 98.5° (Epoch: 10 February)

Date Brightness Start Highest point End Pass type
(mag) Time Alt. Az. Time Alt. Az. Time Alt. Az.
11 Feb 5.0 16:30:32 12° NE 16:30:32 12° NE 16:31:56 10° NNE visible
11 Feb 4.8 18:10:36 22° N 18:10:36 22° N 18:12:30 10° N visible
11 Feb 5.8 19:50:40 13° NNW 19:50:40 13° NNW 19:51:21 10° NNW visible
12 Feb 4.7 17:31:33 20° NNE 17:31:33 20° NNE 17:33:39 10° N visible
12 Feb 5.3 19:11:37 19° NNW 19:11:37 19° NNW 19:13:04 10° NNW visible
13 Feb 4.8 16:52:29 15° NNE 16:52:29 15° NNE 16:54:31 10° N visible
13 Feb 4.9 18:32:34 24° N 18:32:34 24° N 18:34:31 10° NNW visible
13 Feb 5.9 20:12:38 12° NW 20:12:38 12° NW 20:12:59 10° NW visible
14 Feb 5.1 16:13:26 10° NE 16:13:36 10° NE 16:13:57 10° NE visible
14 Feb 4.6 17:53:30 24° NNE 17:53:30 24° NNE 17:55:48 10° N visible
14 Feb 5.5 19:33:35 18° NNW 19:33:35 18° NNW 19:34:54 10° NNW visible
15 Feb 4.7 17:14:27 19° NNE 17:14:27 19° NNE 17:16:51 10° N visible
15 Feb 4.9 18:54:31 24° NNW 18:54:31 24° NNW 18:56:29 10° NNW visible
16 Feb 4.9 16:35:23 13° NE 16:35:23 13° NE 16:37:28 10° NNE visible
16 Feb 4.5 18:15:27 27° N 18:15:27 27° N 18:17:51 10° N visible
16 Feb 5.6 19:55:32 16° NW 19:55:32 16° NW 19:56:37 10° NNW visible
17 Feb 4.5 17:36:24 24° NNE 17:36:24 24° NNE 17:39:03 10° N visible
17 Feb 5.1 19:16:28 23° NNW 19:16:28 23° NNW 19:18:23 10° NNW visible
18 Feb 4.7 16:57:20 17° NE 16:57:20 17° NE 16:59:58 10° N visible
18 Feb 4.6 18:37:24 29° N 18:37:24 29° N 18:39:52 10° NNW visible
18 Feb 5.8 20:17:28 13° NW 20:17:28 13° NW 20:18:12 10° NW visible
19 Feb 5.0 16:18:16 11° NE 16:18:49 11° NE 16:20:00 10° NNE visible
19 Feb 4.3 17:58:21 28° NNE 17:58:21 28° NNE 18:01:09 10° N visible
19 Feb 5.3 19:38:25 21° NW 19:38:25 21° NW 19:40:11 10° NNW visible
20 Feb 4.5 17:19:17 22° NE 17:19:17 22° NE 17:22:14 10° N visible
20 Feb 4.7 18:59:21 29° NNW 18:59:21 29° NNW 19:01:48 10° NNW visible
20 Feb 6.0 20:39:25 10° NW 20:39:25 10° NW 20:39:30 10° NW visible
